CCA5852 ZUUU-ZGHA

Flight info

Callsign CCA5852
Flight time 1h 28m
Altitude 33100
Route UBRA9W/02L UBRAB B213 KIGUM W240 ENH W139 DYG W138 RUKLI
Aircraft B738/M-SDE3FGHILORWXY/LB1

Departure

Time 2026-04-26 11:00
Airport Chengdu Shuangliu International Airport (ZUUU)

Arrival

Time 2026-04-26 12:29
Airport Changsha Huanghua International Airport (ZGHA)
Time Latitude Longitude Altitude Speed Heading
2026-04-26 10:19 30.57385 103.95185 1638 ft 0 kts 201°
2026-04-26 10:42 30.57398 103.95191 1637 ft 2 kts 201°
2026-04-26 10:42 30.57412 103.95197 1637 ft 2 kts 201°
2026-04-26 10:42 30.57426 103.95203 1637 ft 2 kts 201°
2026-04-26 10:43 30.57440 103.95209 1637 ft 2 kts 178°
2026-04-26 10:43 30.57454 103.95203 1637 ft 2 kts 135°
2026-04-26 10:43 30.57460 103.95191 1637 ft 0 kts 103°
2026-04-26 10:43 30.57460 103.95190 1637 ft 0 kts 103°
2026-04-26 10:51 30.57485 103.95248 1637 ft 7 kts 10°
2026-04-26 10:51 30.57515 103.95216 1637 ft 6 kts 295°
2026-04-26 10:52 30.57536 103.95155 1637 ft 9 kts 292°
2026-04-26 10:52 30.57571 103.95054 1637 ft 14 kts 292°
2026-04-26 10:52 30.57584 103.95016 1637 ft 6 kts 291°
2026-04-26 10:52 30.57611 103.94934 1637 ft 14 kts 290°
2026-04-26 10:53 30.57555 103.94868 1637 ft 12 kts 202°
2026-04-26 10:53 30.57454 103.94821 1637 ft 19 kts 202°
2026-04-26 10:53 30.57328 103.94762 1637 ft 18 kts 201°
2026-04-26 10:54 30.57097 103.94656 1637 ft 17 kts 202°
2026-04-26 10:54 30.56981 103.94607 1637 ft 17 kts 195°
2026-04-26 10:54 30.56868 103.94567 1637 ft 16 kts 200°
2026-04-26 10:54 30.56764 103.94519 1637 ft 15 kts 201°
2026-04-26 10:55 30.56668 103.94474 1637 ft 14 kts 202°
2026-04-26 10:55 30.56653 103.94467 1637 ft 0 kts 202°
2026-04-26 10:55 30.56644 103.94463 1637 ft 5 kts 202°
2026-04-26 10:56 30.56599 103.94442 1637 ft 6 kts 202°
2026-04-26 10:56 30.56546 103.94418 1637 ft 13 kts 202°
2026-04-26 10:56 30.56440 103.94367 1637 ft 16 kts 202°
2026-04-26 10:56 30.56333 103.94318 1637 ft 16 kts 202°
2026-04-26 10:57 30.56274 103.94278 1637 ft 6 kts 246°
2026-04-26 10:57 30.56278 103.94222 1637 ft 7 kts 291°
2026-04-26 10:57 30.56296 103.94170 1637 ft 6 kts 291°
2026-04-26 10:57 30.56311 103.94126 1637 ft 6 kts 291°
2026-04-26 10:58 30.56329 103.94072 1637 ft 7 kts 291°
2026-04-26 10:58 30.56344 103.94029 1637 ft 1 kts 292°
2026-04-26 10:58 30.56351 103.94016 1637 ft 3 kts 323°
2026-04-26 10:58 30.56384 103.94019 1637 ft 5 kts 20°
2026-04-26 10:59 30.56403 103.94027 1637 ft 0 kts 22°
2026-04-26 10:59 30.56405 103.94029 1637 ft 2 kts 22°
2026-04-26 10:59 30.56504 103.94074 1637 ft 35 kts 22°
2026-04-26 11:00 30.56937 103.94276 1637 ft 98 kts 21°
2026-04-26 11:00 30.57763 103.94662 1638 ft 152 kts 22°
2026-04-26 11:00 30.58826 103.95160 1928 ft 169 kts 22°
2026-04-26 11:00 30.59884 103.95677 2591 ft 167 kts 25°
2026-04-26 11:01 30.60952 103.96222 3176 ft 172 kts 26°
2026-04-26 11:01 30.62052 103.96796 3639 ft 178 kts 25°
2026-04-26 11:01 30.63256 103.97299 4044 ft 188 kts 20°
2026-04-26 11:01 30.64521 103.97804 4410 ft 200 kts 22°
2026-04-26 11:02 30.65890 103.98417 4690 ft 219 kts 23°
2026-04-26 11:02 30.67375 103.99112 5046 ft 237 kts 23°
2026-04-26 11:02 30.68865 104.00013 5452 ft 250 kts 41°
2026-04-26 11:02 30.69931 104.01639 5887 ft 261 kts 60°
2026-04-26 11:03 30.70741 104.03540 5932 ft 264 kts 63°
2026-04-26 11:03 30.71532 104.05447 5931 ft 261 kts 62°
2026-04-26 11:03 30.72364 104.07314 5923 ft 256 kts 60°
2026-04-26 11:03 30.73232 104.09154 5945 ft 260 kts 59°
2026-04-26 11:04 30.74109 104.10970 5933 ft 259 kts 59°
2026-04-26 11:04 30.75000 104.12811 5941 ft 267 kts 59°
2026-04-26 11:04 30.75956 104.14700 6620 ft 268 kts 52°
2026-04-26 11:04 30.77305 104.16094 7455 ft 264 kts 28°
2026-04-26 11:05 30.79024 104.16856 8176 ft 268 kts 19°
2026-04-26 11:05 30.80812 104.17472 8870 ft 271 kts 18°
2026-04-26 11:05 30.82636 104.18128 9585 ft 274 kts 19°
2026-04-26 11:05 30.84438 104.18829 10281 ft 278 kts 21°
2026-04-26 11:06 30.86311 104.19589 10729 ft 291 kts 21°
2026-04-26 11:06 30.88262 104.20390 11151 ft 306 kts 21°
2026-04-26 11:06 30.90324 104.21236 11562 ft 320 kts 21°
2026-04-26 11:06 30.92476 104.22118 11947 ft 335 kts 20°
2026-04-26 11:07 30.94709 104.23030 12319 ft 349 kts 20°
2026-04-26 11:07 30.97061 104.23998 12570 ft 367 kts 21°
2026-04-26 11:07 30.99350 104.25407 12652 ft 376 kts 37°
2026-04-26 11:07 31.01154 104.27630 12697 ft 380 kts 55°
2026-04-26 11:08 31.02317 104.30404 12690 ft 383 kts 71°
2026-04-26 11:08 31.02839 104.33439 12704 ft 384 kts 82°
2026-04-26 11:08 31.02990 104.36514 12673 ft 381 kts 86°
2026-04-26 11:08 31.03013 104.39580 12687 ft 373 kts 88°
2026-04-26 11:09 31.02979 104.42569 12690 ft 365 kts 89°
2026-04-26 11:09 31.02926 104.45493 12697 ft 359 kts 89°
2026-04-26 11:09 31.02873 104.48389 12682 ft 353 kts 89°
2026-04-26 11:09 31.02829 104.51207 12703 ft 346 kts 89°
2026-04-26 11:10 31.02791 104.53971 12679 ft 342 kts 88°
2026-04-26 11:10 31.02758 104.56736 12673 ft 336 kts 88°
2026-04-26 11:10 31.02727 104.59442 12678 ft 331 kts 88°
2026-04-26 11:10 31.02697 104.62091 12668 ft 327 kts 88°
2026-04-26 11:11 31.02666 104.64706 12661 ft 322 kts 88°
2026-04-26 11:11 31.02635 104.67302 12678 ft 318 kts 89°
2026-04-26 11:11 31.02589 104.70003 12686 ft 340 kts 89°
2026-04-26 11:11 31.02541 104.72780 12978 ft 355 kts 89°
2026-04-26 11:12 31.02500 104.75719 13270 ft 371 kts 89°
2026-04-26 11:12 31.02462 104.78773 13560 ft 386 kts 90°
2026-04-26 11:12 31.02425 104.81941 14069 ft 394 kts 90°
2026-04-26 11:12 31.02389 104.85171 14620 ft 400 kts 90°
2026-04-26 11:13 31.02356 104.88432 15212 ft 405 kts 90°
2026-04-26 11:13 31.02302 104.91709 15800 ft 410 kts 92°
2026-04-26 11:13 31.02032 104.95037 16330 ft 416 kts 98°
2026-04-26 11:13 31.01395 104.98317 16906 ft 420 kts 105°
2026-04-26 11:14 31.00430 105.01576 17410 ft 426 kts 110°
2026-04-26 11:14 30.99295 105.04736 17955 ft 430 kts 113°
2026-04-26 11:14 30.98043 105.07925 18412 ft 437 kts 114°
2026-04-26 11:14 30.96740 105.11124 18862 ft 443 kts 115°
2026-04-26 11:15 30.95395 105.14398 19324 ft 448 kts 115°
2026-04-26 11:15 30.94056 105.17678 19829 ft 452 kts 115°
2026-04-26 11:15 30.92716 105.20979 20223 ft 458 kts 115°
2026-04-26 11:15 30.91341 105.24384 20753 ft 461 kts 115°
2026-04-26 11:16 30.89992 105.27734 21154 ft 467 kts 115°
2026-04-26 11:16 30.88608 105.31186 21586 ft 472 kts 115°
2026-04-26 11:16 30.87237 105.34671 22066 ft 475 kts 113°
2026-04-26 11:16 30.86107 105.38271 22498 ft 479 kts 106°
2026-04-26 11:17 30.85414 105.42060 22939 ft 483 kts 97°
2026-04-26 11:17 30.85222 105.46005 23369 ft 486 kts 88°
2026-04-26 11:17 30.85529 105.49914 23815 ft 489 kts 80°
2026-04-26 11:17 30.86187 105.53750 24249 ft 492 kts 75°
2026-04-26 11:18 30.87053 105.57608 24721 ft 494 kts 73°
2026-04-26 11:18 30.88003 105.61462 25113 ft 498 kts 72°
2026-04-26 11:18 30.88979 105.65352 25572 ft 500 kts 73°
2026-04-26 11:18 30.89934 105.69235 25957 ft 504 kts 73°
2026-04-26 11:19 30.90877 105.73213 26364 ft 507 kts 73°
2026-04-26 11:19 30.91780 105.77172 26741 ft 511 kts 74°
2026-04-26 11:19 30.92662 105.81163 27332 ft 509 kts 75°
2026-04-26 11:19 30.93524 105.85155 27833 ft 509 kts 75°
2026-04-26 11:20 30.94371 105.89139 28402 ft 507 kts 75°
2026-04-26 11:20 30.94924 105.91767 28729 ft 507 kts 75°
2026-04-26 11:20 30.95900 105.97117 29347 ft 507 kts 81°
2026-04-26 11:20 30.96153 106.01206 29885 ft 506 kts 90°
2026-04-26 11:21 30.95948 106.05294 30325 ft 507 kts 96°
2026-04-26 11:21 30.95401 106.09327 30627 ft 510 kts 102°
2026-04-26 11:21 30.94557 106.13329 31004 ft 511 kts 105°
2026-04-26 11:21 30.93549 106.17281 31477 ft 510 kts 108°
2026-04-26 11:22 30.92471 106.21240 31916 ft 509 kts 108°
2026-04-26 11:22 30.91408 106.25115 32262 ft 510 kts 108°
2026-04-26 11:22 30.90352 106.29032 32659 ft 509 kts 107°
2026-04-26 11:22 30.89304 106.33007 32935 ft 509 kts 107°
2026-04-26 11:23 30.86552 106.40432 32950 ft 496 kts 122°
2026-04-26 11:23 30.82337 106.46693 32947 ft 493 kts 136°
2026-04-26 11:24 30.77426 106.52135 32948 ft 489 kts 139°
2026-04-26 11:24 30.72370 106.57415 32946 ft 488 kts 140°
2026-04-26 11:25 30.67302 106.62723 32944 ft 488 kts 140°
2026-04-26 11:25 30.62302 106.68016 32935 ft 488 kts 140°
2026-04-26 11:26 30.57293 106.73373 32930 ft 487 kts 139°
2026-04-26 11:26 30.52336 106.78709 32931 ft 486 kts 139°
2026-04-26 11:27 30.47368 106.84067 32944 ft 486 kts 139°
2026-04-26 11:27 30.42430 106.89376 32936 ft 485 kts 139°
2026-04-26 11:28 30.37460 106.94709 32940 ft 488 kts 139°
2026-04-26 11:28 30.32520 106.99980 32939 ft 486 kts 140°
2026-04-26 11:29 30.27486 107.05183 32938 ft 485 kts 141°
2026-04-26 11:29 30.22402 107.10370 32940 ft 485 kts 141°
2026-04-26 11:30 30.18213 107.14642 32935 ft 483 kts 140°
2026-04-26 11:30 30.12306 107.20701 32948 ft 484 kts 139°
2026-04-26 11:31 30.07444 107.26056 32947 ft 488 kts 137°
2026-04-26 11:31 30.02607 107.31573 32941 ft 485 kts 137°
2026-04-26 11:32 29.98523 107.37744 32949 ft 492 kts 119°
2026-04-26 11:32 29.95904 107.45019 32945 ft 492 kts 109°
2026-04-26 11:33 29.93913 107.52516 32949 ft 491 kts 106°
2026-04-26 11:33 29.92042 107.60092 32966 ft 491 kts 106°
2026-04-26 11:34 29.90727 107.67749 32968 ft 490 kts 92°
2026-04-26 11:34 29.91280 107.75569 32985 ft 490 kts 78°
2026-04-26 11:35 29.93005 107.83109 32993 ft 488 kts 72°
2026-04-26 11:35 29.95050 107.90567 33012 ft 487 kts 71°
2026-04-26 11:36 29.97077 107.97997 33039 ft 488 kts 72°
2026-04-26 11:36 29.99040 108.05482 33055 ft 488 kts 72°
2026-04-26 11:37 30.00958 108.13012 33061 ft 492 kts 72°
2026-04-26 11:37 30.02863 108.20589 33056 ft 491 kts 73°
2026-04-26 11:38 30.04751 108.28146 33056 ft 491 kts 73°
2026-04-26 11:38 30.06636 108.35709 33052 ft 492 kts 73°
2026-04-26 11:39 30.08504 108.43224 33056 ft 490 kts 73°
2026-04-26 11:39 30.10390 108.50848 33068 ft 493 kts 72°
2026-04-26 11:40 30.12270 108.58382 33067 ft 490 kts 72°
2026-04-26 11:40 30.14375 108.65887 33072 ft 491 kts 70°
2026-04-26 11:42 30.22708 108.95983 33106 ft 495 kts 79°
2026-04-26 11:43 30.23691 109.03861 33110 ft 495 kts 82°
2026-04-26 11:43 30.24456 109.11790 33103 ft 496 kts 83°
2026-04-26 11:44 30.25192 109.19731 33085 ft 497 kts 83°
2026-04-26 11:44 30.25567 109.23678 33245 ft 501 kts 83°
2026-04-26 11:44 30.25954 109.27679 33740 ft 499 kts 83°
2026-04-26 11:45 30.26343 109.31649 34427 ft 495 kts 83°
2026-04-26 11:45 30.26732 109.35588 35004 ft 492 kts 83°
2026-04-26 11:45 30.27117 109.39468 35457 ft 491 kts 82°
2026-04-26 11:45 30.27508 109.43390 35818 ft 492 kts 82°
2026-04-26 11:46 30.27803 109.47347 36190 ft 492 kts 87°
2026-04-26 11:46 30.27780 109.51294 36559 ft 492 kts 93°
2026-04-26 11:46 30.27418 109.55221 36928 ft 491 kts 99°
2026-04-26 11:46 30.26641 109.59002 37081 ft 490 kts 112°
2026-04-26 11:47 30.24953 109.62420 37121 ft 485 kts 132°
2026-04-26 11:47 30.22502 109.65014 37122 ft 478 kts 149°
2026-04-26 11:47 30.16713 109.68650 37138 ft 472 kts 156°
2026-04-26 11:48 30.10955 109.72367 37175 ft 475 kts 154°
2026-04-26 11:48 30.05249 109.76238 37203 ft 475 kts 153°
2026-04-26 11:49 29.99597 109.80097 37196 ft 474 kts 153°
2026-04-26 11:49 29.93893 109.83971 37179 ft 476 kts 153°
2026-04-26 11:50 29.88198 109.87821 37161 ft 475 kts 153°
2026-04-26 11:50 29.82471 109.91676 37151 ft 476 kts 153°
2026-04-26 11:51 29.76732 109.95531 37152 ft 477 kts 153°
2026-04-26 11:51 29.71012 109.99365 37141 ft 478 kts 153°
2026-04-26 11:52 29.65233 110.03235 37115 ft 479 kts 154°
2026-04-26 11:52 29.59480 110.07082 37096 ft 480 kts 153°
2026-04-26 11:53 29.53681 110.10953 37071 ft 480 kts 154°
2026-04-26 11:54 29.45025 110.16727 37057 ft 479 kts 153°
2026-04-26 11:54 29.39269 110.20567 37047 ft 480 kts 153°
2026-04-26 11:55 29.33502 110.24410 37042 ft 480 kts 154°
2026-04-26 11:55 29.27693 110.28278 37053 ft 482 kts 154°
2026-04-26 11:56 29.21911 110.32122 37037 ft 480 kts 154°
2026-04-26 11:56 29.16139 110.35953 37041 ft 482 kts 153°
2026-04-26 11:57 29.10510 110.40134 37040 ft 488 kts 143°
2026-04-26 11:57 29.08082 110.42893 37049 ft 491 kts 131°
2026-04-26 11:57 29.06022 110.45972 37041 ft 492 kts 127°
2026-04-26 11:58 29.02229 110.52544 37042 ft 495 kts 123°
2026-04-26 11:58 28.98640 110.59154 37029 ft 490 kts 123°
2026-04-26 11:59 28.95019 110.65773 37020 ft 489 kts 124°
2026-04-26 11:59 28.91374 110.72321 37022 ft 491 kts 124°
2026-04-26 12:00 28.88306 110.77773 37022 ft 487 kts 124°
2026-04-26 12:00 28.84034 110.85324 37022 ft 488 kts 124°
2026-04-26 12:01 28.80354 110.91810 37022 ft 489 kts 124°
2026-04-26 12:01 28.76661 110.98309 37028 ft 487 kts 124°
2026-04-26 12:02 28.72998 111.04742 37021 ft 486 kts 124°
2026-04-26 12:02 28.69307 111.11228 37024 ft 491 kts 124°
2026-04-26 12:03 28.65573 111.17767 37025 ft 493 kts 125°
2026-04-26 12:03 28.61881 111.24274 37015 ft 491 kts 124°
2026-04-26 12:04 28.58161 111.30859 37036 ft 496 kts 124°
2026-04-26 12:04 28.54460 111.37403 37029 ft 494 kts 125°
2026-04-26 12:05 28.50715 111.44009 37024 ft 497 kts 125°
2026-04-26 12:05 28.46999 111.50561 37027 ft 495 kts 124°
2026-04-26 12:06 28.43238 111.57176 37028 ft 498 kts 125°
2026-04-26 12:06 28.39502 111.63734 37029 ft 498 kts 125°
2026-04-26 12:07 28.35739 111.70332 37029 ft 497 kts 126°
2026-04-26 12:07 28.31966 111.76934 37021 ft 496 kts 125°
2026-04-26 12:08 28.28205 111.83500 37022 ft 497 kts 125°
2026-04-26 12:08 28.24442 111.90063 37033 ft 497 kts 125°
2026-04-26 12:09 28.20692 111.96594 37024 ft 497 kts 125°
2026-04-26 12:09 28.16922 112.03142 36592 ft 494 kts 125°
2026-04-26 12:09 28.15039 112.06403 36074 ft 490 kts 125°
2026-04-26 12:10 28.13199 112.09591 35433 ft 488 kts 125°
2026-04-26 12:10 28.11335 112.12837 34281 ft 490 kts 125°
2026-04-26 12:10 28.09506 112.16039 33439 ft 492 kts 124°
2026-04-26 12:10 28.07642 112.19312 32595 ft 494 kts 124°
2026-04-26 12:11 28.05781 112.22578 31727 ft 498 kts 125°
2026-04-26 12:11 28.03877 112.25882 30814 ft 501 kts 125°
2026-04-26 12:11 28.01984 112.29147 29887 ft 505 kts 124°
2026-04-26 12:11 28.00212 112.32581 28883 ft 511 kts 118°
2026-04-26 12:12 27.98882 112.36289 27863 ft 517 kts 107°
2026-04-26 12:12 27.98164 112.40270 26789 ft 523 kts 98°
2026-04-26 12:12 27.97745 112.44385 25642 ft 528 kts 96°
2026-04-26 12:12 27.97548 112.47133 24846 ft 532 kts 94°
2026-04-26 12:13 27.97263 112.52613 23332 ft 516 kts 94°
2026-04-26 12:13 27.97095 112.56570 22579 ft 497 kts 93°
2026-04-26 12:13 27.96932 112.60386 21842 ft 481 kts 94°
2026-04-26 12:13 27.96759 112.64109 20758 ft 473 kts 94°
2026-04-26 12:14 27.96569 112.67763 19835 ft 461 kts 95°
2026-04-26 12:14 27.96372 112.71301 19120 ft 444 kts 95°
2026-04-26 12:14 27.96170 112.74717 18475 ft 427 kts 95°
2026-04-26 12:14 27.95968 112.78025 17889 ft 422 kts 95°
2026-04-26 12:15 27.95762 112.81366 17213 ft 436 kts 94°
2026-04-26 12:15 27.95781 112.84811 16470 ft 443 kts 85°
2026-04-26 12:15 27.96502 112.88211 15649 ft 443 kts 68°
2026-04-26 12:15 27.98050 112.91145 14897 ft 440 kts 51°
2026-04-26 12:16 28.00245 112.93517 14149 ft 436 kts 36°
2026-04-26 12:16 28.02805 112.95355 13355 ft 430 kts 29°
2026-04-26 12:16 28.05352 112.96925 12872 ft 412 kts 27°
2026-04-26 12:16 28.07946 112.98432 12680 ft 415 kts 26°
2026-04-26 12:17 28.10465 112.99869 12040 ft 403 kts 26°
2026-04-26 12:17 28.12957 113.01337 10918 ft 399 kts 30°
2026-04-26 12:17 28.15172 113.03069 10501 ft 377 kts 40°
2026-04-26 12:17 28.17067 113.05057 10256 ft 365 kts 46°
2026-04-26 12:18 28.18770 113.07119 9992 ft 349 kts 48°
2026-04-26 12:18 28.20352 113.09145 9799 ft 334 kts 51°
2026-04-26 12:18 28.21576 113.11310 9454 ft 318 kts 67°
2026-04-26 12:18 28.22248 113.13620 9207 ft 300 kts 77°
2026-04-26 12:19 28.22640 113.15904 8973 ft 291 kts 81°
2026-04-26 12:19 28.22941 113.18134 8740 ft 286 kts 83°
2026-04-26 12:19 28.23230 113.20355 8481 ft 284 kts 82°
2026-04-26 12:19 28.23533 113.22575 8241 ft 284 kts 82°
2026-04-26 12:20 28.23846 113.24773 8001 ft 282 kts 82°
2026-04-26 12:20 28.24169 113.26982 7763 ft 281 kts 82°
2026-04-26 12:20 28.24490 113.29168 7547 ft 280 kts 82°
2026-04-26 12:20 28.24944 113.31288 7327 ft 281 kts 70°
2026-04-26 12:21 28.25983 113.33150 7139 ft 276 kts 42°
2026-04-26 12:21 28.27628 113.34208 6858 ft 274 kts 15°
2026-04-26 12:21 28.29507 113.34427 6520 ft 272 kts 357°
2026-04-26 12:21 28.31402 113.34351 6163 ft 272 kts 357°
2026-04-26 12:22 28.33299 113.34296 5843 ft 271 kts 358°
2026-04-26 12:22 28.35158 113.34260 5693 ft 263 kts 358°
2026-04-26 12:22 28.36947 113.34218 5623 ft 251 kts 356°
2026-04-26 12:22 28.38655 113.33920 5556 ft 248 kts 338°
2026-04-26 12:23 28.40062 113.32833 5443 ft 239 kts 304°
2026-04-26 12:23 28.40708 113.31203 5317 ft 223 kts 276°
2026-04-26 12:23 28.40775 113.29502 5256 ft 210 kts 264°
2026-04-26 12:23 28.40700 113.27857 5190 ft 209 kts 263°
2026-04-26 12:24 28.40624 113.26204 5121 ft 210 kts 264°
2026-04-26 12:24 28.40553 113.24579 5069 ft 200 kts 264°
2026-04-26 12:24 28.40387 113.23050 5000 ft 195 kts 250°
2026-04-26 12:25 28.38441 113.21215 4625 ft 194 kts 187°
2026-04-26 12:25 28.37079 113.21207 4079 ft 204 kts 175°
2026-04-26 12:25 28.35659 113.21323 3590 ft 205 kts 175°
2026-04-26 12:25 28.34238 113.21423 3121 ft 203 kts 176°
2026-04-26 12:26 28.32856 113.21508 2669 ft 192 kts 176°
2026-04-26 12:26 28.31538 113.21589 2241 ft 184 kts 175°
2026-04-26 12:26 28.30288 113.21666 2008 ft 179 kts 175°
2026-04-26 12:26 28.29056 113.21742 1772 ft 174 kts 175°
2026-04-26 12:27 28.27858 113.21815 1558 ft 170 kts 176°
2026-04-26 12:27 28.26720 113.21886 1334 ft 159 kts 176°
2026-04-26 12:27 28.25652 113.21950 1164 ft 150 kts 175°
2026-04-26 12:27 28.24629 113.22013 949 ft 143 kts 176°
2026-04-26 12:28 28.23625 113.22075 760 ft 143 kts 176°
2026-04-26 12:28 28.22625 113.22137 581 ft 145 kts 176°
2026-04-26 12:28 28.21623 113.22199 393 ft 145 kts 176°
2026-04-26 12:28 28.20602 113.22259 232 ft 144 kts 176°
2026-04-26 12:29 28.19721 113.22317 225 ft 106 kts 177°
2026-04-26 12:29 28.19201 113.22346 225 ft 44 kts 177°
2026-04-26 12:29 28.18802 113.22302 225 ft 26 kts 202°
2026-04-26 12:30 28.18733 113.22268 225 ft 6 kts 203°
2026-04-26 12:30 28.18676 113.22240 225 ft 10 kts 203°
2026-04-26 12:30 28.18611 113.22208 225 ft 9 kts 201°
2026-04-26 12:31 28.18482 113.22199 225 ft 8 kts 176°
2026-04-26 12:31 28.18421 113.22203 225 ft 9 kts 176°
2026-04-26 12:31 28.18339 113.22208 225 ft 15 kts 176°
2026-04-26 12:31 28.18226 113.22215 225 ft 16 kts 176°
2026-04-26 12:32 28.18132 113.22221 225 ft 4 kts 176°
2026-04-26 12:32 28.18095 113.22217 225 ft 8 kts 204°
2026-04-26 12:32 28.18068 113.22154 225 ft 0 kts 266°
2026-04-26 12:33 28.18067 113.22140 225 ft 6 kts 266°
2026-04-26 12:34 28.18072 113.22054 225 ft 12 kts 287°
2026-04-26 12:34 28.18093 113.21961 226 ft 11 kts 268°
2026-04-26 12:34 28.18091 113.21893 225 ft 8 kts 268°
2026-04-26 12:34 28.18090 113.21837 226 ft 0 kts 268°
2026-04-26 12:35 28.18092 113.21835 226 ft 0 kts 313°
2026-04-26 12:35 28.18111 113.21837 225 ft 5 kts
2026-04-26 12:35 28.18172 113.21835 225 ft 12 kts 357°
2026-04-26 12:36 28.18282 113.21828 226 ft 17 kts 356°
2026-04-26 12:36 28.18400 113.21822 225 ft 16 kts 357°
2026-04-26 12:36 28.18515 113.21814 225 ft 16 kts 357°
2026-04-26 12:36 28.18621 113.21808 225 ft 9 kts 356°
2026-04-26 12:37 28.18658 113.21766 225 ft 7 kts 271°
2026-04-26 12:37 28.18665 113.21708 225 ft 9 kts 306°
2026-04-26 12:37 28.18734 113.21690 225 ft 10 kts 356°
2026-04-26 12:37 28.18817 113.21685 225 ft 14 kts 357°
2026-04-26 12:38 28.18928 113.21677 225 ft 15 kts 356°
2026-04-26 12:38 28.19036 113.21671 225 ft 15 kts 357°
2026-04-26 12:38 28.19139 113.21665 225 ft 14 kts 356°
2026-04-26 12:38 28.19240 113.21658 225 ft 14 kts 356°
2026-04-26 12:39 28.19342 113.21652 225 ft 16 kts 356°
2026-04-26 12:39 28.19422 113.21657 225 ft 8 kts
2026-04-26 12:39 28.19482 113.21654 225 ft 8 kts 356°
2026-04-26 12:39 28.19555 113.21651 225 ft 13 kts 357°
2026-04-26 12:40 28.19614 113.21648 225 ft 2 kts 356°
2026-04-26 12:40 28.19648 113.21645 225 ft 7 kts 356°
2026-04-26 12:40 28.19709 113.21641 225 ft 9 kts 356°
2026-04-26 12:40 28.19766 113.21638 225 ft 5 kts 352°
2026-04-26 12:41 28.19788 113.21612 225 ft 4 kts 281°
2026-04-26 12:41 28.19788 113.21578 225 ft 3 kts 269°
2026-04-26 12:41 28.19788 113.21564 225 ft 0 kts 268°
2026-04-26 12:41 28.19788 113.21563 225 ft 0 kts 268°